Soldotna, AK

10:19 AM AKDT on July 26, 2017 (GMT -0800)
Soldotna

Weather History for PASX - May, 2014

Change the Weather History Date:

Thursday, May 15, 2014

  Actual Average Record
Temperature  
Mean Temperature 46 °F -  
Max Temperature 62 °F 52 °F 68 °F (2016)
Min Temperature 30 °F 35 °F 25 °F (1965)
Degree Days  
Heating Degree Days 19    
Moisture  
Dew Point 26 °F    
Average Humidity 43    
Maximum Humidity 70    
Minimum Humidity 25    
Precipitation  
Precipitation 0.00 in - - ()
Sea Level Pressure  
Sea Level Pressure 30.37 in    
Wind  
Wind Speed 5 mph (WNW)    
Max Wind Speed 18 mph    
Max Gust Speed -    
Visibility 10 miles    
Events      
Averages and records for this station are not official NWS values.
T = Trace of Precipitation, MM = Missing Value Source: NWS Daily Summary

Daily Weather History Graph

Daily Weather History Graph

Search for Another Location

Airport or City:

Trip Planner

Search our weather history database for the weather conditions in past years. The results will help you decide how hot, cold, wet, or windy it might be!

Date:

Astronomy

May. 15, 2014 Rise Set
Actual Time 5:22 AM AKDT 10:40 PM AKDT
Civil Twilight 4:16 AM AKDT 11:47 PM AKDT
Nautical Twilight 2:32 AM AKDT 1:28 AM AKDT
Astronomical Twilight Sun does not set Sun does not set
Moon 11:57 PM AKDT (5/15) 6:23 AM AKDT (5/15)
Length of Visible Light 19h 31m
Length of Day
17h 18m
Full, 99% of the Moon is Illuminated
May 15
Full
May 21
Last Quarter
May 28
New
Jun 5
First Quarter
Jun 12
Full

Hourly Weather History & Observations

Time (AKDT) Temp. Windchill Dew Point Humidity Pressure Visibility Wind Dir Wind Speed Gust Speed Precip Events Conditions
12:16 AM 42.8 °F - 26.6 °F 53% 30.38 in 10.0 mi Calm Calm - N/A   Clear
12:36 AM 41.0 °F - 26.6 °F 57% 30.39 in 10.0 mi Calm Calm - N/A   Clear
12:56 AM 39.2 °F - 24.8 °F 56% 30.39 in 10.0 mi Calm Calm - N/A   Clear
1:16 AM 37.4 °F 34.9 °F 24.8 °F 60% 30.39 in 10.0 mi ENE 3.5 mph - N/A   Clear
1:36 AM 37.4 °F 34.9 °F 24.8 °F 60% 30.40 in 10.0 mi ENE 3.5 mph - N/A   Clear
1:56 AM 35.6 °F 31.7 °F 23.0 °F 60% 30.40 in 10.0 mi East 4.6 mph - N/A   Clear
2:16 AM 35.6 °F 31.7 °F 23.0 °F 60% 30.40 in 10.0 mi ENE 4.6 mph - N/A   Clear
2:36 AM 35.6 °F 31.7 °F 24.8 °F 65% 30.40 in 10.0 mi East 4.6 mph - N/A   Clear
2:56 AM 35.6 °F - 24.8 °F 65% 30.41 in 10.0 mi Calm Calm - N/A   Clear
3:16 AM 35.6 °F - 24.8 °F 65% 30.41 in 10.0 mi Calm Calm - N/A   Clear
3:36 AM 33.8 °F - 23.0 °F 65% 30.41 in 10.0 mi Calm Calm - N/A   Clear
3:56 AM 35.6 °F - 24.8 °F 65% 30.42 in 10.0 mi Calm Calm - N/A   Clear
4:16 AM 32.0 °F 28.7 °F 21.2 °F 64% 30.42 in 10.0 mi NE 3.5 mph - N/A   Clear
4:36 AM 30.2 °F - 21.2 °F 69% 30.42 in 10.0 mi Calm Calm - N/A   Clear
4:56 AM 30.2 °F - 21.2 °F 69% 30.42 in 10.0 mi Calm Calm - N/A   Clear
5:16 AM 30.2 °F 25.4 °F 21.2 °F 69% 30.42 in 10.0 mi ENE 4.6 mph - N/A   Clear
5:36 AM 30.2 °F 25.4 °F 21.2 °F 69% 30.42 in 10.0 mi East 4.6 mph - N/A   Clear
5:56 AM 30.2 °F 26.7 °F 21.2 °F 69% 30.42 in 10.0 mi ENE 3.5 mph - N/A   Clear
6:16 AM 33.8 °F 30.8 °F 23.0 °F 65% 30.42 in 10.0 mi ENE 3.5 mph - N/A   Clear
6:36 AM 33.8 °F - 24.8 °F 70% 30.42 in 10.0 mi Calm Calm - N/A   Clear
6:56 AM 33.8 °F 30.8 °F 24.8 °F 70% 30.42 in 10.0 mi ENE 3.5 mph - N/A   Clear
7:16 AM 37.4 °F 34.9 °F 26.6 °F 65% 30.42 in 10.0 mi ENE 3.5 mph - N/A   Clear
7:36 AM 37.4 °F - 26.6 °F 65% 30.42 in 10.0 mi Calm Calm - N/A   Clear
7:56 AM 41.0 °F 39.0 °F 26.6 °F 57% 30.42 in 10.0 mi ENE 3.5 mph - N/A   Clear
8:16 AM 44.6 °F 43.1 °F 28.4 °F 53% 30.42 in 10.0 mi ENE 3.5 mph - N/A   Clear
8:36 AM 46.4 °F - 30.2 °F 53% 30.42 in 10.0 mi Calm Calm - N/A   Clear
8:56 AM 50.0 °F - 32.0 °F 50% 30.42 in 10.0 mi Calm Calm - N/A   Clear
9:16 AM 55.4 °F - 30.2 °F 38% 30.42 in 10.0 mi SW 8.1 mph - N/A   Clear
9:36 AM 57.2 °F - 30.2 °F 36% 30.42 in 10.0 mi SSW 5.8 mph - N/A   Clear
9:56 AM 59.0 °F - 30.2 °F 34% 30.42 in 10.0 mi West 4.6 mph - N/A   Clear
10:16 AM 59.0 °F - 30.2 °F 34% 30.42 in 10.0 mi West 6.9 mph - N/A   Clear
11:16 AM 60.8 °F - 28.4 °F 29% 30.41 in 10.0 mi West 6.9 mph - N/A   Clear
11:36 AM 60.8 °F - 30.2 °F 31% 30.41 in 10.0 mi WNW 5.8 mph - N/A   Clear
11:56 AM 60.8 °F - 30.2 °F 31% 30.41 in 10.0 mi West 9.2 mph - N/A   Clear
12:16 PM 62.6 °F - 28.4 °F 27% 30.40 in 10.0 mi West 11.5 mph - N/A   Clear
12:36 PM 62.6 °F - 28.4 °F 27% 30.40 in 10.0 mi West 12.7 mph - N/A   Clear
12:56 PM 62.6 °F - 28.4 °F 27% 30.40 in 10.0 mi WNW 12.7 mph - N/A   Clear
1:16 PM 62.6 °F - 26.6 °F 26% 30.40 in 10.0 mi WNW 13.8 mph - N/A   Clear
1:36 PM 62.6 °F - 28.4 °F 27% 30.40 in 10.0 mi West 15.0 mph - N/A   Clear
1:56 PM 62.6 °F - 26.6 °F 26% 30.40 in 10.0 mi West 12.7 mph - N/A   Clear
2:16 PM 60.8 °F - 28.4 °F 29% 30.39 in 10.0 mi West 13.8 mph - N/A   Clear
2:36 PM 60.8 °F - 28.4 °F 29% 30.39 in 10.0 mi West 13.8 mph - N/A   Clear
2:56 PM 60.8 °F - 28.4 °F 29% 30.38 in 10.0 mi West 15.0 mph - N/A   Clear
3:16 PM 60.8 °F - 26.6 °F 27% 30.38 in 10.0 mi West 13.8 mph - N/A   Clear
3:36 PM 60.8 °F - 24.8 °F 25% 30.37 in 10.0 mi West 18.4 mph - N/A   Clear
3:56 PM 60.8 °F - 26.6 °F 27% 30.37 in 10.0 mi West 16.1 mph - N/A   Clear
4:16 PM 60.8 °F - 26.6 °F 27% 30.36 in 10.0 mi WNW 15.0 mph - N/A   Clear
4:36 PM 62.6 °F - 28.4 °F 27% 30.36 in 10.0 mi West 15.0 mph - N/A   Clear
4:56 PM 62.6 °F - 26.6 °F 26% 30.35 in 10.0 mi West 15.0 mph - N/A   Clear
5:16 PM 62.6 °F - 26.6 °F 26% 30.34 in 10.0 mi WNW 11.5 mph - N/A   Clear
5:36 PM 62.6 °F - 26.6 °F 26% 30.34 in 10.0 mi WNW 10.4 mph - N/A   Clear
5:56 PM 62.6 °F - 26.6 °F 26% 30.34 in 10.0 mi WNW 11.5 mph - N/A   Clear
6:16 PM 60.8 °F - 26.6 °F 27% 30.34 in 10.0 mi WNW 10.4 mph - N/A   Clear
6:36 PM 60.8 °F - 26.6 °F 27% 30.33 in 10.0 mi WNW 8.1 mph - N/A   Clear
6:56 PM 60.8 °F - 26.6 °F 27% 30.32 in 10.0 mi West 8.1 mph - N/A   Clear
7:16 PM 60.8 °F - 28.4 °F 29% 30.32 in 10.0 mi WNW 6.9 mph - N/A   Clear
7:36 PM 60.8 °F - 28.4 °F 29% 30.31 in 10.0 mi West 6.9 mph - N/A   Clear
7:56 PM 60.8 °F - 26.6 °F 27% 30.31 in 10.0 mi West 8.1 mph - N/A   Clear
8:16 PM 60.8 °F - 24.8 °F 25% 30.30 in 10.0 mi West 8.1 mph - N/A   Clear
8:36 PM 60.8 °F - 26.6 °F 27% 30.30 in 10.0 mi West 6.9 mph - N/A   Clear
8:56 PM 59.0 °F - 26.6 °F 29% 30.30 in 10.0 mi WNW 6.9 mph - N/A   Clear
9:16 PM 57.2 °F - 24.8 °F 29% 30.30 in 10.0 mi WNW 6.9 mph - N/A   Clear
9:36 PM 57.2 °F - 24.8 °F 29% 30.29 in 10.0 mi West 5.8 mph - N/A   Clear
9:56 PM 55.4 °F - 24.8 °F 31% 30.29 in 10.0 mi West 5.8 mph - N/A   Clear
10:16 PM 55.4 °F - 24.8 °F 31% 30.29 in 10.0 mi West 6.9 mph - N/A   Clear
10:36 PM 53.6 °F - 26.6 °F 35% 30.29 in 10.0 mi WNW 4.6 mph - N/A   Clear
10:56 PM 51.8 °F - 26.6 °F 38% 30.29 in 10.0 mi Calm Calm - N/A   Clear
11:16 PM 48.2 °F - 26.6 °F 43% 30.29 in 10.0 mi Calm Calm - N/A   Clear
11:36 PM 46.4 °F - 26.6 °F 46% 30.28 in 10.0 mi Calm Calm - N/A   Clear
11:56 PM 44.6 °F - 26.6 °F 49% 30.29 in 10.0 mi Calm Calm - N/A   Clear